Bellefontaine, OH

12:08 PM EDT on July 23, 2017 (GMT -0400)
Bellefontaine

Weather History for KEDJ - October, 2012

Change the Weather History Date:

Saturday, October 27, 2012

  Actual Average (KDLZ) Record (KDLZ)
Temperature  
Mean Temperature 42 °F -  
Max Temperature 48 °F 60 °F 84 °F (1963)
Min Temperature 37 °F 35 °F 19 °F (1962)
Degree Days  
Heating Degree Days 22    
Moisture  
Dew Point 39 °F    
Average Humidity 87    
Maximum Humidity 100    
Minimum Humidity 62    
Precipitation  
Precipitation 0.05 in - - ()
Sea Level Pressure  
Sea Level Pressure 30.09 in    
Wind  
Wind Speed 15 mph (North)    
Max Wind Speed 20 mph    
Max Gust Speed 24 mph    
Visibility 9 miles    
Events      
Averages and records for this station are not official NWS values.
T = Trace of Precipitation, MM = Missing Value Source: NWS Daily Summary

Daily Weather History Graph

Daily Weather History Graph

Search for Another Location

Airport or City:

Trip Planner

Search our weather history database for the weather conditions in past years. The results will help you decide how hot, cold, wet, or windy it might be!

Date:

Astronomy

Oct. 27, 2012 Rise Set
Actual Time 7:59 AM EDT 6:37 PM EDT
Civil Twilight 7:31 AM EDT 7:05 PM EDT
Nautical Twilight 6:59 AM EDT 7:37 PM EDT
Astronomical Twilight 6:28 AM EDT 8:09 PM EDT
Moon 5:23 PM EDT (10/27) 5:53 AM EDT (10/27)
Length of Visible Light 11h 33m
Length of Day
10h 37m
Waxing Gibbous, 96% of the Moon is Illuminated
Oct 27
Waxing Gibbous
Oct 29
Full
Nov 6
Last Quarter
Nov 13
New
Nov 20
First Quarter

Hourly Weather History & Observations

Time (EDT) Temp. Windchill Dew Point Humidity Pressure Visibility Wind Dir Wind Speed Gust Speed Precip Events Conditions
12:30 AM 42.8 °F 35.1 °F 42.8 °F 100% 30.12 in 3.0 mi North 16.1 mph 19.6 mph 0.03 in   Overcast
12:50 AM 42.8 °F 34.8 °F 42.8 °F 100% 30.11 in 2.5 mi North 17.3 mph 21.9 mph 0.05 in   Overcast
1:10 AM 42.8 °F 34.8 °F 42.8 °F 100% 30.10 in 5.0 mi NNE 17.3 mph 20.7 mph 0.00 in   Overcast
1:30 AM 42.8 °F 35.4 °F 42.8 °F 100% 30.10 in 10.0 mi North 15.0 mph 20.7 mph 0.00 in   Overcast
1:50 AM 42.8 °F 34.8 °F 42.8 °F 100% 30.09 in 4.0 mi North 17.3 mph - 0.04 in   Overcast
2:10 AM 42.8 °F 35.1 °F 42.8 °F 100% 30.08 in 6.0 mi NNE 16.1 mph 24.2 mph 0.00 in   Overcast
2:30 AM 42.8 °F 35.8 °F 42.8 °F 100% 30.08 in 10.0 mi North 13.8 mph - 0.00 in   Overcast
2:50 AM 42.8 °F 35.4 °F 42.8 °F 100% 30.08 in 10.0 mi North 15.0 mph - 0.00 in   Overcast
3:10 AM 42.8 °F 35.4 °F 42.8 °F 100% 30.08 in 10.0 mi North 15.0 mph - 0.00 in   Overcast
3:30 AM 42.8 °F 35.1 °F 42.8 °F 100% 30.08 in 10.0 mi North 16.1 mph - 0.00 in   Overcast
3:50 AM 42.8 °F 35.4 °F 42.8 °F 100% 30.07 in 10.0 mi North 15.0 mph - 0.00 in   Overcast
4:30 AM 42.8 °F 35.4 °F 42.8 °F 100% 30.06 in 9.0 mi North 15.0 mph 21.9 mph 0.01 in   Overcast
4:50 AM 42.8 °F 35.1 °F 42.8 °F 100% 30.05 in 10.0 mi North 16.1 mph - 0.01 in   Overcast
5:10 AM 42.8 °F 35.4 °F 42.8 °F 100% 30.06 in 10.0 mi North 15.0 mph 21.9 mph 0.00 in   Overcast
5:30 AM 41.0 °F 33.1 °F 41.0 °F 100% 30.07 in 9.0 mi North 15.0 mph 21.9 mph 0.00 in   Overcast
5:50 AM 41.0 °F 32.5 °F 41.0 °F 100% 30.06 in 7.0 mi North 17.3 mph 23.0 mph 0.00 in   Overcast
6:10 AM 41.0 °F 33.1 °F 41.0 °F 100% 30.07 in 7.0 mi North 15.0 mph - 0.00 in   Overcast
6:30 AM 39.2 °F 30.2 °F 39.2 °F 100% 30.07 in 4.0 mi North 17.3 mph 21.9 mph 0.00 in   Overcast
6:50 AM 39.2 °F 30.5 °F 39.2 °F 100% 30.08 in 3.0 mi North 16.1 mph - 0.00 in   Overcast
7:10 AM 39.2 °F 30.8 °F 39.2 °F 100% 30.08 in 4.0 mi North 15.0 mph 20.7 mph 0.00 in   Overcast
7:50 AM 39.2 °F 30.8 °F 39.2 °F 100% 30.09 in 4.0 mi North 15.0 mph 21.9 mph 0.00 in   Overcast
8:10 AM 39.2 °F 30.8 °F 39.2 °F 100% 30.10 in 5.0 mi NNW 15.0 mph 20.7 mph 0.00 in   Overcast
8:30 AM 39.2 °F 30.2 °F 39.2 °F 100% 30.11 in 4.0 mi North 17.3 mph - 0.00 in   Overcast
8:50 AM 39.2 °F 29.6 °F 39.2 °F 100% 30.11 in 3.0 mi NNW 19.6 mph 24.2 mph 0.00 in   Overcast
9:10 AM 39.2 °F 30.5 °F 39.2 °F 100% 30.11 in 8.0 mi North 16.1 mph - 0.00 in   Mostly Cloudy
9:30 AM 39.2 °F 30.2 °F 39.2 °F 100% 30.12 in 10.0 mi North 17.3 mph - 0.00 in   Mostly Cloudy
10:10 AM 39.2 °F 30.8 °F 39.2 °F 100% 30.13 in 5.0 mi North 15.0 mph - 0.00 in   Scattered Clouds
10:30 AM 41.0 °F 32.8 °F 39.2 °F 93% 30.13 in 10.0 mi North 16.1 mph - 0.00 in   Mostly Cloudy
10:50 AM 41.0 °F 32.8 °F 39.2 °F 93% 30.13 in 10.0 mi North 16.1 mph - 0.00 in   Overcast
11:30 AM 42.8 °F 34.5 °F 41.0 °F 93% 30.13 in 10.0 mi North 18.4 mph 23.0 mph 0.00 in   Overcast
11:50 AM 42.8 °F 34.5 °F 41.0 °F 93% 30.12 in 10.0 mi North 18.4 mph - 0.00 in   Overcast
12:10 PM 44.6 °F 37.8 °F 41.0 °F 87% 30.12 in 10.0 mi NNE 15.0 mph 21.9 mph 0.00 in   Overcast
12:30 PM 44.6 °F 37.8 °F 41.0 °F 87% 30.12 in 10.0 mi North 15.0 mph 21.9 mph 0.00 in   Overcast
12:50 PM 44.6 °F 37.8 °F 41.0 °F 87% 30.11 in 10.0 mi North 15.0 mph - 0.00 in   Overcast
1:10 PM 46.4 °F 40.1 °F 41.0 °F 81% 30.10 in 10.0 mi North 15.0 mph - 0.00 in   Overcast
1:30 PM 46.4 °F 40.4 °F 41.0 °F 81% 30.10 in 10.0 mi North 13.8 mph - 0.00 in   Overcast
1:50 PM 46.4 °F 40.1 °F 39.2 °F 76% 30.09 in 10.0 mi North 15.0 mph - 0.00 in   Mostly Cloudy
2:10 PM 46.4 °F 41.1 °F 39.2 °F 76% 30.08 in 10.0 mi NNE 11.5 mph - 0.00 in   Overcast
2:30 PM 48.2 °F - 41.0 °F 76% 30.07 in 10.0 mi NNE 16.1 mph 21.9 mph 0.00 in   Overcast
2:50 PM 48.2 °F - 39.2 °F 71% 30.07 in 10.0 mi NNE 17.3 mph 20.7 mph 0.00 in   Overcast
3:10 PM 48.2 °F - 39.2 °F 71% 30.06 in 10.0 mi NNE 16.1 mph - 0.00 in   Overcast
3:30 PM 48.2 °F - 39.2 °F 71% 30.06 in 10.0 mi North 16.1 mph 19.6 mph 0.00 in   Overcast
3:50 PM 48.2 °F - 39.2 °F 71% 30.07 in 10.0 mi NNE 11.5 mph - 0.00 in   Overcast
4:10 PM 48.2 °F - 37.4 °F 66% 30.07 in 10.0 mi NNE 15.0 mph - 0.00 in   Overcast
4:30 PM 48.2 °F - 37.4 °F 66% 30.07 in 10.0 mi North 16.1 mph - 0.00 in   Mostly Cloudy
4:50 PM 48.2 °F - 37.4 °F 66% 30.07 in 10.0 mi North 17.3 mph 24.2 mph 0.00 in   Mostly Cloudy
5:10 PM 48.2 °F - 37.4 °F 66% 30.08 in 10.0 mi NNE 13.8 mph 18.4 mph 0.00 in   Overcast
5:30 PM 46.4 °F 40.7 °F 35.6 °F 66% 30.07 in 10.0 mi NNE 12.7 mph - 0.00 in   Mostly Cloudy
5:50 PM 48.2 °F - 35.6 °F 62% 30.08 in 10.0 mi NNE 15.0 mph 23.0 mph 0.00 in   Mostly Cloudy
6:10 PM 46.4 °F 41.1 °F 35.6 °F 66% 30.08 in 10.0 mi NNE 11.5 mph - 0.00 in   Overcast
6:30 PM 46.4 °F 42.4 °F 37.4 °F 71% 30.09 in 10.0 mi NNE 8.1 mph - 0.00 in   Overcast
6:50 PM 46.4 °F 42.4 °F 37.4 °F 71% 30.09 in 10.0 mi NNE 8.1 mph - 0.00 in   Overcast
7:10 PM 46.4 °F 41.9 °F 37.4 °F 71% 30.09 in 10.0 mi NNE 9.2 mph - 0.00 in   Overcast
7:30 PM 44.6 °F 39.7 °F 35.6 °F 71% 30.10 in 10.0 mi NNE 9.2 mph - 0.00 in   Mostly Cloudy
7:50 PM 44.6 °F 41.4 °F 35.6 °F 71% 30.11 in 10.0 mi NNE 5.8 mph - 0.00 in   Mostly Cloudy
8:10 PM 44.6 °F 40.7 °F 35.6 °F 71% 30.11 in 10.0 mi NNE 6.9 mph - 0.00 in   Overcast
8:30 PM 42.8 °F 39.3 °F 35.6 °F 76% 30.11 in 10.0 mi North 5.8 mph - 0.00 in   Mostly Cloudy
8:50 PM 41.0 °F 37.1 °F 35.6 °F 81% 30.11 in 10.0 mi North 5.8 mph - 0.00 in   Mostly Cloudy
9:10 PM 39.2 °F 35.9 °F 35.6 °F 87% 30.11 in 10.0 mi North 4.6 mph - 0.00 in   Mostly Cloudy
9:30 PM 39.2 °F 35.0 °F 35.6 °F 87% 30.11 in 10.0 mi North 5.8 mph - 0.00 in   Partly Cloudy
9:50 PM 39.2 °F 35.0 °F 35.6 °F 87% 30.11 in 10.0 mi North 5.8 mph - 0.00 in   Clear
10:10 PM 37.4 °F 32.8 °F 35.6 °F 93% 30.11 in 10.0 mi North 5.8 mph - 0.00 in   Clear
10:30 PM 37.4 °F 32.8 °F 33.8 °F 87% 30.11 in 10.0 mi North 5.8 mph - 0.00 in   Clear
10:50 PM 37.4 °F 32.1 °F 33.8 °F 87% 30.11 in 10.0 mi North 6.9 mph - 0.00 in   Mostly Cloudy
11:10 PM 37.4 °F 32.1 °F 35.6 °F 93% 30.11 in 10.0 mi North 6.9 mph - 0.00 in   Mostly Cloudy
11:30 PM 39.2 °F 33.0 °F 35.6 °F 87% 30.11 in 10.0 mi NNE 9.2 mph - 0.00 in   Partly Cloudy
11:50 PM 39.2 °F 33.0 °F 33.8 °F 81% 30.11 in 10.0 mi North 9.2 mph - 0.00 in   Clear